COSMOS 1275 DEB, 12769

Orbit data source: Space-Track

COSMOS 1275 DEB, 12769 is space debris in LEO originally from a launch on Thu, 04 Jun 1981 UTC launched from the Plesetsk Missile And Space Complex (PKMTR). Debris objects in space refer to the collection of defunct objects orbiting the Earth. Examples of debris include non-operational satellites, rocket bodies, and fragments generated from explosions, collisions, or faulty payload assembly.

Loading next visibility...
Identifier
12769, 1981-053DN
Orbit
LEO
Country
Flag of CISCIS
Related business
Manufacturer
Unknown
Mission
Spacecraft
Bus & Motor
Unknown
Mass
Unknown
Launch date (UTC)
1981-06-04 (44 years ago)
Launch vehicle
Unknown
Launch site
Plesetsk Missile And Space Complex (PKMTR)
Object type
Payload
Rocket body
Debris
Shape & HBR
Unknown shape, 0.3 m
Radar Cross Section
Medium (>0.1 m² and <1 m²)

Expand to show TLE details & history
Last TLE update: 8 hours ago

TLE from 8 hours ago
0 COSMOS 1275 DEB
1 12769U 81053DN  25296.18458277  .00000425  00000-0  43201-3 0  9992
2 12769  82.8202 322.0884 0068928 308.9363 119.2561 13.73813476209459
Epoch: 2025-10-23T04:25Z
TLE epoch observation values (Epoch: 2025-10-23T04:25:47.951Z)
Latitude
67.82377°
Longitude
-118.30306°
Altitude
1,022.723 km
Speed
7.334 km/s
True Right ascension
22h 39m 58s
True Declination
67° 42' 27"
Sunlit
Object was in daylight at epoch
Visualization orbit readout
Latitude
Unknown
Longitude
Unknown
Altitude
Unknown
Speed
Unknown
Apparent Right ascension
Unknown
Apparent Declination
Unknown
Sunlit
N/A
Visualization observer readout
Local Sidereal Time
08:02:49
Azimuth
Unknown
Elevation
Unknown
Doppler factor
Unknown
Orbital elements
Apogee altitude
1,033.806 km
Perigee altitude
932.327 km
Semi-major axis
7,361.204 km
Eccentricity
0.00689
Inclination
82.8202°
RAAN
322.0884°
Arg. of periapsis
308.9363°
True anomaly
119.9423°
Mean anomaly
119.2561°
Eccentric anomaly
119.59949°
Mean motion
3.43653 °/min
Orbital period
104.76 mins
BSTAR
0.00043201
Loading maneuver chart data...
Computing Atmospheric mass density...

Documentation

Showing up to 5 results
|